Track YAOGAN-43 O1F now! 10-day predictions YAOGAN-43 O1F is classified as:
1 60463U 24148F 24325.99761270 .00016251 00000-0 67613-3 0 9996 2 60463 34.9961 167.5506 0007845 49.8889 310.2512 15.22899416 14694